COSMOS 2460 (732)

Last updated on Tue Jul 01 2025 00:03:16 GMT+0000 (Coordinated Universal Time)

1 36402U 10007C 25180.74026916 -.00000070 00000+0 00000+0 0 9990 2 36402 65.6197 326.3721 0001728 117.2640 239.9018 2.13106285119218
UTC large
Height (km)
Speed (km/s)
/
Latitude / Longitude
Inclination (degrees)
Orbital Period (minutes)
Azimuth
Elevation
Range (km)
Doppler Factor

Next 0 passes for location: London (51.5072 / 0.1276)

Sorry there are no passes over London.